When you browse on this site, cookies collect data to enhance your experience and personalize the content and advertising you see.
Visit our Privacy Policy to learn more. By continuing to use the site, you agree to this use of cookies and data.
  • In Belgien
  • Länderverzeichnis
  • Für 7 Tage
  • Wassertemperatur
  • Satellitenkarten
  • Wetterkarte
  • Widgets
  • user-avatar
    Anmelden

    Stündliche Wetter Brügge

    Heute, 17 November, Samstag

    Zeit Temperatur Niederschläge Wind Luftdruck Luftfeuchtigkeit
    00:00 +3°C° 0 mm 3 m/S 770 mmHg 80%
    01:00 +3°C° 0 mm 3 m/S 770 mmHg 79%
    02:00 +3°C° 0 mm 3 m/S 770 mmHg 78%
    03:00 +2°C° 0 mm 3 m/S 770 mmHg 77%
    04:00 +1°C° 0 mm 4 m/S 770 mmHg 78%
    05:00 +1°C° 0 mm 4 m/S 770 mmHg 78%
    06:00 +1°C° 0 mm 4 m/S 770 mmHg 79%
    07:00 +2°C° 0 mm 5 m/S 770 mmHg 77%
    08:00 +2°C° 0 mm 5 m/S 770 mmHg 75%
    09:00 +3°C° 0 mm 6 m/S 770 mmHg 73%
    10:00 +4°C° 0 mm 6 m/S 770 mmHg 69%
    11:00 +5°C° 0 mm 6 m/S 770 mmHg 64%
    12:00 +8°C° 0 mm 7 m/S 770 mmHg 60%
    13:00 +8°C° 0 mm 7 m/S 770 mmHg 60%
    14:00 +8°C° 0 mm 7 m/S 770 mmHg 60%
    15:00 +6°C° 0 mm 7 m/S 770 mmHg 60%
    16:00 +6°C° 0 mm 7 m/S 770 mmHg 60%
    17:00 +5°C° 0 mm 7 m/S 770 mmHg 61%
    18:00 +4°C° 0 mm 7 m/S 770 mmHg 61%
    19:00 +4°C° 0 mm 7 m/S 770 mmHg 62%
    20:00 +4°C° 0 mm 7 m/S 770 mmHg 62%
    21:00 +3°C° 0 mm 7 m/S 770 mmHg 62%
    22:00 +3°C° 0 mm 7 m/S 770 mmHg 62%
    23:00 +2°C° 0 mm 7 m/S 770 mmHg 62%

    Morgen, 18 November, Sonntag

    Zeit Temperatur Niederschläge Wind Luftdruck Luftfeuchtigkeit
    00:00 +2°C° 0 mm 6 m/S 770 mmHg 62%
    01:00 +2°C° 0 mm 7 m/S 770 mmHg 63%
    02:00 +2°C° 0 mm 7 m/S 770 mmHg 63%
    03:00 0°C° 0 mm 7 m/S 770 mmHg 63%
    04:00 0°C° 0 mm 7 m/S 770 mmHg 63%
    05:00 0°C° 0 mm 7 m/S 770 mmHg 62%
    06:00 0°C° 0 mm 7 m/S 770 mmHg 62%
    07:00 0°C° 0 mm 7 m/S 770 mmHg 59%
    08:00 +2°C° 0 mm 7 m/S 770 mmHg 56%
    09:00 +2°C° 0 mm 7 m/S 770 mmHg 53%
    10:00 +3°C° 0 mm 7 m/S 770 mmHg 51%
    11:00 +4°C° 0 mm 7 m/S 770 mmHg 49%
    12:00 +5°C° 0 mm 7 m/S 770 mmHg 47%
    13:00 +5°C° 0 mm 7 m/S 769 mmHg 48%
    14:00 +5°C° 0 mm 7 m/S 769 mmHg 48%
    15:00 +5°C° 0 mm 7 m/S 769 mmHg 49%
    16:00 +4°C° 0 mm 7 m/S 769 mmHg 48%
    17:00 +3°C° 0 mm 7 m/S 769 mmHg 47%
    18:00 +2°C° 0 mm 7 m/S 769 mmHg 46%
    19:00 +2°C° 0 mm 7 m/S 769 mmHg 46%
    20:00 +1°C° 0 mm 8 m/S 769 mmHg 47%
    21:00 +1°C° 0 mm 8 m/S 769 mmHg 47%
    22:00 0°C° 0 mm 8 m/S 768 mmHg 53%
    23:00 0°C° 0 mm 8 m/S 768 mmHg 59%

    übermorgen, 19 November, Montag

    Zeit Temperatur Niederschläge Wind Luftdruck Luftfeuchtigkeit
    00:00 0°C° 0 mm 8 m/S 768 mmHg 66%
    01:00 0°C° 0 mm 8 m/S 768 mmHg 72%
    02:00 0°C° 0 mm 8 m/S 768 mmHg 78%
    03:00 0°C° 0 mm 8 m/S 767 mmHg 84%
    04:00 0°C° 0 mm 8 m/S 767 mmHg 86%
    05:00 0°C° 0 mm 8 m/S 767 mmHg 88%
    06:00 0°C° 0 mm 8 m/S 766 mmHg 90%
    07:00 +1°C° 0 mm 8 m/S 766 mmHg 87%
    08:00 +1°C° 0 mm 8 m/S 766 mmHg 84%
    09:00 +2°C° 0 mm 8 m/S 766 mmHg 81%
    10:00 +4°C° 0 mm 8 m/S 765 mmHg 78%
    11:00 +3°C° 0 mm 9 m/S 765 mmHg 75%
    12:00 +5°C° 0 mm 9 m/S 764 mmHg 73%
    13:00 +5°C° 0.1 mm 9 m/S 764 mmHg 72%
    14:00 +5°C° 0.1 mm 8 m/S 763 mmHg 71%
    15:00 +5°C° 0.1 mm 8 m/S 763 mmHg 71%
    16:00 +4°C° 0.1 mm 8 m/S 763 mmHg 72%
    17:00 +4°C° 0.1 mm 8 m/S 762 mmHg 73%
    18:00 +2°C° 0.1 mm 8 m/S 762 mmHg 75%
    19:00 +2°C° 0.1 mm 8 m/S 762 mmHg 76%
    20:00 +1°C° 0.1 mm 8 m/S 762 mmHg 77%
    21:00 +1°C° 0.1 mm 8 m/S 761 mmHg 78%
    22:00 +1°C° 0.1 mm 8 m/S 761 mmHg 79%
    23:00 +1°C° 0.1 mm 8 m/S 761 mmHg 80%

    20 November, Dienstag

    Zeit Temperatur Niederschläge Wind Luftdruck Luftfeuchtigkeit
    00:00 0°C° 0.1 mm 8 m/S 760 mmHg 81%
    01:00 0°C° 0 mm 9 m/S 760 mmHg 80%
    02:00 0°C° 0 mm 9 m/S 759 mmHg 79%
    03:00 -1°C° 0 mm 9 m/S 759 mmHg 78%
    04:00 -1°C° 0.1 mm 9 m/S 759 mmHg 78%
    05:00 -1°C° 0.1 mm 9 m/S 758 mmHg 77%
    06:00 -1°C° 0.1 mm 9 m/S 758 mmHg 77%
    07:00 0°C° 0 mm 10 m/S 758 mmHg 73%
    08:00 0°C° 0 mm 10 m/S 758 mmHg 70%
    09:00 0°C° 0 mm 10 m/S 758 mmHg 66%
    10:00 +1°C° 0.1 mm 10 m/S 757 mmHg 65%
    11:00 +1°C° 0.1 mm 9 m/S 757 mmHg 64%
    12:00 +2°C° 0.1 mm 9 m/S 756 mmHg 63%
    13:00 +2°C° 0.2 mm 9 m/S 756 mmHg 65%
    14:00 +1°C° 0.2 mm 8 m/S 755 mmHg 67%
    15:00 +1°C° 0.2 mm 8 m/S 755 mmHg 68%
    16:00 +1°C° 0.1 mm 8 m/S 755 mmHg 70%
    17:00 0°C° 0.1 mm 8 m/S 755 mmHg 72%
    18:00 -1°C° 0.1 mm 7 m/S 755 mmHg 74%
    19:00 -1°C° 0 mm 7 m/S 755 mmHg 75%
    20:00 -1°C° 0 mm 7 m/S 755 mmHg 77%
    21:00 -1°C° 0 mm 6 m/S 756 mmHg 79%
    22:00 -1°C° 0 mm 6 m/S 756 mmHg 80%
    23:00 0°C° 0 mm 5 m/S 756 mmHg 81%

    21 November, Mittwoch

    Zeit Temperatur Niederschläge Wind Luftdruck Luftfeuchtigkeit
    00:00 0°C° 0 mm 5 m/S 756 mmHg 82%
    01:00 0°C° 0.1 mm 4 m/S 756 mmHg 84%
    02:00 -1°C° 0.1 mm 4 m/S 755 mmHg 86%
    03:00 0°C° 0.1 mm 3 m/S 755 mmHg 88%
    04:00 0°C° 0.2 mm 3 m/S 755 mmHg 88%
    05:00 0°C° 0.2 mm 3 m/S 755 mmHg 88%
    06:00 +1°C° 0.2 mm 2 m/S 755 mmHg 88%
    07:00 +2°C° 0.3 mm 2 m/S 755 mmHg 87%
    08:00 +2°C° 0.3 mm 2 m/S 755 mmHg 86%
    09:00 +2°C° 0.3 mm 2 m/S 755 mmHg 85%
    10:00 +2°C° 0.4 mm 2 m/S 755 mmHg 84%
    11:00 +2°C° 0.4 mm 3 m/S 755 mmHg 83%
    12:00 +2°C° 0.4 mm 3 m/S 755 mmHg 82%
    13:00 +2°C° 0.4 mm 3 m/S 755 mmHg 83%
    14:00 +1°C° 0.4 mm 4 m/S 755 mmHg 83%
    15:00 +1°C° 0.4 mm 4 m/S 755 mmHg 83%
    16:00 +1°C° 0.5 mm 5 m/S 755 mmHg 82%
    17:00 +1°C° 0.5 mm 6 m/S 756 mmHg 81%
    18:00 0°C° 0.5 mm 7 m/S 756 mmHg 80%
    19:00 0°C° 0.2 mm 7 m/S 756 mmHg 79%
    20:00 0°C° 0.2 mm 7 m/S 757 mmHg 78%
    21:00 0°C° 0.2 mm 8 m/S 757 mmHg 77%
    22:00 -1°C° 0.1 mm 8 m/S 757 mmHg 78%
    23:00 -1°C° 0.1 mm 8 m/S 758 mmHg 78%

    22 November, Donnerstag

    Zeit Temperatur Niederschläge Wind Luftdruck Luftfeuchtigkeit
    00:00 -2°C° 0.1 mm 8 m/S 758 mmHg 79%
    01:00 -2°C° 0 mm 8 m/S 759 mmHg 81%
    02:00 -2°C° 0 mm 7 m/S 759 mmHg 83%
    03:00 -3°C° 0 mm 7 m/S 759 mmHg 84%
    04:00 -3°C° 0 mm 7 m/S 760 mmHg 85%
    05:00 -3°C° 0 mm 7 m/S 761 mmHg 86%
    06:00 -3°C° 0 mm 6 m/S 761 mmHg 87%
    07:00 -3°C° 0 mm 6 m/S 762 mmHg 85%
    08:00 -2°C° 0 mm 6 m/S 763 mmHg 83%
    09:00 -2°C° 0 mm 6 m/S 763 mmHg 80%
    10:00 -1°C° 0 mm 6 m/S 763 mmHg 77%
    11:00 +1°C° 0 mm 6 m/S 764 mmHg 73%
    12:00 +2°C° 0 mm 5 m/S 764 mmHg 69%
    13:00 +2°C° 0 mm 5 m/S 764 mmHg 72%
    14:00 +2°C° 0 mm 5 m/S 764 mmHg 74%
    15:00 +2°C° 0 mm 5 m/S 764 mmHg 76%
    16:00 +1°C° 0 mm 5 m/S 765 mmHg 78%
    17:00 0°C° 0 mm 5 m/S 765 mmHg 81%
    18:00 0°C° 0 mm 5 m/S 765 mmHg 83%
    19:00 -1°C° 0 mm 5 m/S 765 mmHg 84%
    20:00 -1°C° 0 mm 5 m/S 766 mmHg 84%
    21:00 -1°C° 0 mm 4 m/S 766 mmHg 85%
    22:00 -1°C° 0 mm 4 m/S 766 mmHg 85%
    23:00 0°C° 0 mm 3 m/S 766 mmHg 85%
    Mehr zeigen